Weather History for Chadron, NE

Change the Weather History Date:

Friday, August 2, 2013

  Actual Average Record
Temperature  
Mean Temperature 69 °F 75 °F  
Max Temperature 78 °F 91 °F 104 °F (1938)
Min Temperature 60 °F 58 °F 47 °F (1950)
Degree Days  
Heating Degree Days 0 0  
Month to date heating degree days 0 0  
Since 1 June heating degree days 58 91  
Since 1 July heating degree days 0 10  
Cooling Degree Days 4 10  
Month to date cooling degree days 16 20  
Year to date cooling degree days 474 424  
Since 1 June cooling degree days 446 404  
Growing Degree Days 19 (Base 50)    
Moisture  
Dew Point 61 °F    
Average Humidity 74    
Maximum Humidity 93    
Minimum Humidity 54    
Precipitation  
Precipitation T in 0.06 in 0.80 in (1940)
Month to date precipitation T 0.12  
Year to date precipitation 10.92 12.41  
Sea Level Pressure  
Sea Level Pressure 29.94 in    
Wind  
Wind Speed 10 mph (ENE)    
Max Wind Speed 23 mph    
Max Gust Speed 29 mph    
Visibility 9 miles    
Events Rain    
T = Trace of Precipitation, MM = Missing Value Source: NWS Daily Summary

Daily Weather History Graph

Daily Weather History Graph

Search for Another Location

Airport:

Trip Planner

Search our weather history database for the weather conditions in past years. The results will help you decide how hot, cold, wet, or windy it might be!

Date:

Astronomy

Aug. 02, 2013 Rise Set
Actual Time 5:45 AM MDT 8:11 PM MDT
Civil Twilight 5:13 AM MDT 8:43 PM MDT
Nautical Twilight 4:33 AM MDT 9:22 PM MDT
Astronomical Twilight 3:48 AM MDT 10:07 PM MDT
Moon 2:06 AM MDT (8/2) 5:11 PM MDT (8/2)
Length of Visible Light 15h 30m
Length of Day
14h 26m
Waning Crescent, 15% of the Moon is Illuminated
Aug 2
Waning Crescent
Aug 6
New
Aug 14
First Quarter
Aug 20
Full
Aug 28
Last Quarter

Hourly Weather History & Observations

Time (MDT) Temp. Dew Point Humidity Pressure Visibility Wind Dir Wind Speed Gust Speed Precip Events Conditions
12:53 AM 71.1 °F 64.9 °F 81% 29.87 in 10.0 mi NE 10.4 mph - N/A   Partly Cloudy
1:53 AM 68.0 °F 64.0 °F 87% 29.81 in 10.0 mi SE 10.4 mph - N/A   Clear
2:53 AM 66.9 °F 63.0 °F 87% 29.81 in 10.0 mi SSW 6.9 mph - N/A   Clear
3:53 AM 64.9 °F 62.1 °F 90% 29.81 in 10.0 mi SW 8.1 mph - N/A   Clear
4:53 AM 64.9 °F 63.0 °F 93% 29.82 in 10.0 mi NE 12.7 mph 16.1 mph N/A   Clear
5:53 AM 64.0 °F 62.1 °F 93% 29.87 in 10.0 mi NE 5.8 mph - N/A   Scattered Clouds
6:03 AM 64.4 °F 62.6 °F 94% 29.94 in 10.0 mi NNE 5.8 mph - N/A   Mostly Cloudy
6:13 AM 64.4 °F 62.6 °F 94% 29.94 in 10.0 mi NNE 8.1 mph - N/A   Mostly Cloudy
6:21 AM 64.4 °F 62.6 °F 94% 29.95 in 10.0 mi NNE 10.4 mph - N/A   Overcast
6:29 AM 64.4 °F 62.6 °F 94% 29.95 in 9.0 mi NNE 12.7 mph - N/A   Overcast
6:53 AM 64.9 °F 63.0 °F 93% 29.88 in 9.0 mi NNE 9.2 mph - N/A   Overcast
7:53 AM 66.0 °F 64.0 °F 93% 29.89 in 7.0 mi NNE 8.1 mph - N/A   Overcast
8:53 AM 62.1 °F 60.1 °F 93% 29.92 in 6.0 mi NNE 15.0 mph - N/A   Overcast
9:53 AM 60.1 °F 57.9 °F 93% 29.98 in 5.0 mi NNE 17.3 mph - 0.00 in Rain Light Rain
10:53 AM 61.0 °F 57.9 °F 90% 30.00 in 7.0 mi NNE 19.6 mph 26.5 mph 0.00 in   Overcast
11:53 AM 63.0 °F 57.9 °F 84% 30.01 in 10.0 mi NE 16.1 mph - N/A   Overcast
12:02 PM 62.6 °F 57.2 °F 82% 30.06 in 10.0 mi NNE 15.0 mph 25.3 mph N/A   Overcast
12:53 PM 64.0 °F 57.9 °F 80% 30.00 in 10.0 mi NE 16.1 mph - N/A   Overcast
1:53 PM 66.9 °F 59.0 °F 76% 29.99 in 10.0 mi East 13.8 mph - N/A   Overcast
2:53 PM 71.1 °F 60.1 °F 68% 29.97 in 10.0 mi Variable 6.9 mph - N/A   Overcast
3:27 PM 73.4 °F 60.8 °F 65% 30.01 in 10.0 mi Variable 4.6 mph - N/A   Scattered Clouds
3:53 PM 75.0 °F 60.1 °F 60% 29.94 in 10.0 mi SE 8.1 mph - N/A   Clear
4:53 PM 77.0 °F 60.1 °F 56% 29.92 in 10.0 mi ESE 9.2 mph - N/A   Clear
5:53 PM 78.1 °F 60.1 °F 54% 29.91 in 10.0 mi SE 10.4 mph - N/A   Clear
6:53 PM 78.1 °F 60.1 °F 54% 29.92 in 10.0 mi East 8.1 mph - N/A   Clear
7:53 PM 73.9 °F 60.1 °F 62% 29.95 in 10.0 mi ESE 8.1 mph - N/A   Clear
8:53 PM 70.0 °F 60.1 °F 71% 30.00 in 10.0 mi East 6.9 mph - N/A   Clear
9:53 PM 64.9 °F 59.0 °F 81% 30.02 in 10.0 mi ENE 4.6 mph - N/A   Clear
10:53 PM 66.0 °F 60.1 °F 81% 30.02 in 10.0 mi NE 6.9 mph - N/A   Clear
11:53 PM 62.1 °F 60.1 °F 93% 30.04 in 10.0 mi NE 8.1 mph - N/A   Clear